Location: McFarlands Corners
(41.4117°N, 81.3382°W)
Time: 13:10:15
(UTC+00:00)

A-11 Canister half - Pass Details

Date: 17 February 2026
Orbit: 1513 x 1686 km, 47.2° (Epoch: 17 March)

Event Time Altitude Azimuth Distance (km) Brightness Sun altitude
Rises 01:01:15 0° 204° (SSW) 4,924 11.9 -23.2°
Reaches altitude 10° 01:04:43 10° 196° (SSW) 3,941 11.3 -23.9°
Maximum altitude 01:13:44 38° 133° (SE) 2,374 9.5 -25.6°
Enters shadow 01:14:31 37° 124° (SE) 2,388 9.5 -25.7°
Drops below altitude 10° 01:22:38 10° 71° (ENE) 3,901 - -27.2°
Sets 01:26:01 0° 64° (ENE) 4,870 - -27.8°
